Location: Burgwalden
(48.2830°N, 10.7576°E)
Time: 01:05:40
(UTC+00:00)

USA 281 - Pass Details

Date: 26 September 2023
Orbit: 1077 x 1081 km, 106.0° (Epoch: 19 November)

Event Time Altitude Azimuth Distance (km) Brightness Sun altitude
Rises 01:37:29 0° 25° (NNE) 3,892 7.1 -32.9°
Reaches altitude 10° 01:40:00 10° 26° (NNE) 2,932 6.2 -32.6°
Enters shadow 01:46:24 84° 39° (NE) 1,093 3.1 -31.9°
